Fecha;EUA;CER;SPREAD (EUA - CER)
03-01-2011;13.83;12.09;"1,74"
04-01-2011;14.06;11.90;"2,16"
05-01-2011;14.15;11.70;"2,45"
10-01-2011;14.03;11.33;"2,7"
11-01-2011;14.06;11.37;"2,69"
12-01-2011;13.82;11.32;"2,5"
13-01-2011;13.95;11.36;"2,59"
14-01-2011;14.07;11.40;"2,67"
17-01-2011;14.10;11.40;"2,7"
18-01-2011;14.22;11.45;"2,77"
19-01-2011;14.10;11.43;"2,67"
20-01-2011;14.10;11.43;"2,67"
21-01-2011;14.10;11.43;"2,67"
24-01-2011;14.10;11.43;"2,67"
25-01-2011;14.10;11.43;"2,67"
26-01-2011;14.10;11.43;"2,67"
27-01-2011;14.10;11.43;"2,67"
28-01-2011;14.10;11.43;"2,67"
31-01-2011;14.10;11.43;"2,67"
01-02-2011;14.10;11.43;"2,67"
02-02-2011;14.10;11.43;"2,67"
03-02-2011;14.10;11.43;"2,67"
04-02-2011;14.10;11.43;"2,67"
04-02-2011;14.10;11.43;"2,67"
07-02-2011;14.10;11.43;"2,67"
08-02-2011;14.10;11.43;"2,67"
09-02-2011;14.30;11.45;"2,85"
10-02-2011;14.31;11.40;"2,91"
11-02-2011;14.52;11.47;"3,05"
14-02-2011;14.45;11.50;"2,95"
15-02-2011;14.30;11.40;"2,9"
16-02-2011;14.20;11.40;"2,8"
17-02-2011;14.25;11.50;"2,75"
18-02-2011;14.40;11.65;"2,75"
21-02-2011;14.68;11.75;"2,93"
22-02-2011;14.75;11.80;"2,95"
23-02-2011;14.65;11.80;"2,85"
24-02-2011;14.78;11.95;"2,83"
25-02-2011;14.72;11.95;"2,77"
28-02-2011;14.69;11.94;"2,75"
01-03-2011;14.72;11.95;"2,77"
02-03-2011;14.48;11.92;"2,56"
03-03-2011;14.57;11.80;"2,77"
04-03-2011;14.51;11.83;"2,68"
07-03-2011;14.85;11.97;"2,88"
08-03-2011;14.90;12.00;"2,9"
09-03-2011;14.99;12.05;"2,94"
10-03-2011;14.95;12.00;"2,95"
11-03-2011;14.96;12.03;"2,93"
14-03-2011;15.19;12.25;"2,94"
15-03-2011;16.10;13.20;"2,9"
16-03-2011;16.42;13.45;"2,97"
17-03-2011;16.13;13.15;"2,98"
18-03-2011;16.20;13.15;"3,05"
21-03-2011;16.03;13.16;"2,87"
22-03-2011;16.06;13.10;"2,96"
23-03-2011;16.20;13.14;"3,06"
24-03-2011;16.05;13.03;"3,02"
25-03-2011;16.04;12.98;"3,06"
28-03-2011;16.35;13.29;"3,06"
29-03-2011;16.37;13.22;"3,15"
31-03-2011;16.45;13.25;"3,2"
01-04-2011;16.36;13.30;"3,06"
04-04-2011;16.49;13.42;"3,07"
05-04-2011;16.48;13.40;"3,08"
06-04-2011;16.55;13.40;"3,15"
07-04-2011;16.45;13.29;"3,16"
08-04-2011;16.45;13.20;"3,25"
11-04-2011;16.19;12.99;"3,2"
12-04-2011;16.10;13.03;"3,07"
13-04-2011;16.15;13.03;"3,12"
14-04-2011;16.11;13.05;"3,06"
18-04-2011;16.09;12.95;"3,14"
19-04-2011;16.11;13.05;"3,06"
20-04-2011;16.20;13.21;"2,99"
21-04-2011;16.20;13.21;"2,99"
26-04-2011;16.12;13.10;"3,02"
27-04-2011;16.41;13.15;"3,26"
28-04-2011;16.40;13.20;"3,2"
29-04-2011;16.42;13.13;"3,29"
02-05-2011;16.47;13.13;"3,34"
03-05-2011;16.65;13.21;"3,44"
04-05-2011;16.60;13.22;"3,38"
05-05-2011;16.50;13.07;"3,43"
06-05-2011;16.56;13.21;"3,35"
09-05-2011;16.57;13.20;"3,37"
10-05-2011;16.56;13.17;"3,39"
11-05-2011;16.38;13.10;"3,28"
12-05-2011;16.35;12.88;"3,47"
13-05-2011;16.41;12.93;"3,48"
16-05-2011;16.35;12.90;"3,45"
17-05-2011;16.28;12.75;"3,53"
18-05-2011;16.20;12.64;"3,56"
19-05-2011;16.15;12.62;"3,53"
20-05-2011;16.00;12.44;"3,56"
23-05-2011;15.81;12.30;"3,51"
24-05-2011;15.93;12.35;"3,58"
25-05-2011;15.90;12.32;"3,58"
26-05-2011;15.97;12.41;"3,56"
27-05-2011;16.40;12.80;"3,6"
30-05-2011;16.80;13.12;"3,68"
31-05-2011;16.77;13.05;"3,72"
02-06-2011;16.43;12.53;"3,9"
03-06-2011;16.35;12.43;"3,92"
06-06-2011;16.52;12.63;"3,89"
06-06-2011;16.40;12.53;"3,87"
07-06-2011;16.32;12.38;"3,94"
08-06-2011;16.27;12.30;"3,97"
09-06-2011;16.25;12.33;"3,92"
10-06-2011;16.16;12.30;"3,86"
13-06-2011;16.24;12.32;"3,92"
14-06-2011;16.21;12.15;"4,06"
15-06-2011;15.94;12.07;"3,87"
16-06-2011;15.72;11.95;"3,77"
20-06-2011;14.92;11.80;"3,12"
21-06-2011;14.50;11.00;"3,5"
22-06-2011;14.42;11.14;"3,28"
23-06-2011;13.01;10.47;"2,54"
24-06-2011;12.07;10.47;"1,6"
27-06-2011;13.01;10.69;"2,32"
28-06-2011;13.46;10.85;"2,61"
29-06-2011;13.02;10.62;"2,4"
30-06-2011;13.32;10.92;"2,4"
01-07-2011;13.12;10.93;"2,19"
04-07-2011;13.10;10.94;"2,16"
05-07-2011;13.32;11.18;"2,14"
06-07-2011;12.91;10.90;"2,01"
07-07-2011;12.90;10.68;"2,22"
08-07-2011;12.35;10.53;"1,82"
11-07-2011;11.89;10.15;"1,74"
12-07-2011;12.12;10.20;"1,92"
13-07-2011;11.73;9.92;"1,81"
14-07-2011;12.02;10.07;"1,95"
15-07-2011;12.10;10.24;"1,86"
18-07-2011;12.03;9.95;"2,08"
19-07-2011;12.12;10.07;"2,05"
20-07-2011;12.57;10.02;"2,55"
21-07-2011;12.75;10.03;"2,72"
22-07-2011;12.72;10.05;"2,67"
25-07-2011;12.63;9.93;"2,7"
26-07-2011;12.69;10.01;"2,68"
27-07-2011;12.25;9.93;"2,32"
28-07-2011;12.35;9.66;"2,69"
29-07-2011;12.17;9.50;"2,67"
01-08-2011;11.80;9.55;"2,25"
02-08-2011;11.50;8.70;"2,8"
03-08-2011;11.38;9.00;"2,38"
04-08-2011;11.10;8.32;"2,78"
05-08-2011;10.65;7.73;"2,92"
08-08-2011;10.43;7.84;"2,59"
09-08-2011;10.92;8.07;"2,85"
10-08-2011;11.48;8.14;"3,34"
11-08-2011;12.03;8.81;"3,22"
12-08-2011;12.25;8.87;"3,38"
15-08-2011;12.27;8.96;"3,31"
16-08-2011;12.24;8.88;"3,36"
17-08-2011;12.54;9.08;"3,46"
18-08-2011;12.18;8.62;"3,56"
19-08-2011;12.24;8.73;"3,51"
22-08-2011;12.38;8.70;"3,68"
23-08-2011;12.57;9.10;"3,47"
24-08-2011;12.85;9.18;"3,67"
25-08-2011;12.78;9.11;"3,67"
26-08-2011;12.96;9.17;"3,79"
29-08-2011;13.02;9.30;"3,72"
30-08-2011;13.19;9.52;"3,67"
31-08-2011;12.85;9.11;"3,74"
01-09-2011;12.70;8.97;"3,73"
02-09-2011;12.48;8.60;"3,88"
05-09-2011;12.30;8.65;"3,65"
06-09-2011;11.91;8.54;"3,37"
07-09-2011;12.18;8.77;"3,41"
08-09-2011;12.05;8.50;"3,55"
09-09-2011;11.73;8.26;"3,47"
12-09-2011;11.80;8.43;"3,37"
13-09-2011;11.85;8.43;"3,42"
14-09-2011;11.88;8.47;"3,41"
15-09-2011;12.17;8.88;"3,29"
16-09-2011;12.04;8.77;"3,27"
19-09-2011;11.75;8.54;"3,21"
20-09-2011;11.80;8.36;"3,44"
21-09-2011;11.71;8.44;"3,27"
22-09-2011;11.09;8.16;"2,93"
23-09-2011;11.21;8.15;"3,06"
26-09-2011;10.80;8.02;"2,78"
27-09-2011;10.65;7.88;"2,77"
28-09-2011;10.33;7.70;"2,63"
29-09-2011;10.79;7.90;"2,89"
30-09-2011;10.52;7.98;"2,54"
03-10-2011;10.12;7.76;"2,36"
04-10-2011;9.98;7.77;"2,21"
05-10-2011;10.09;7.84;"2,25"
06-10-2011;10.28;8.01;"2,27"
07-10-2011;10.33;8.04;"2,29"
10-10-2011;10.59;8.10;"2,49"
11-10-2011;10.59;8.10;"2,49"
12-10-2011;10.60;7.89;"2,71"
13-10-2011;10.09;7.54;"2,55"
14-10-2011;10.16;7.33;"2,83"
17-10-2011;10.15;7.38;"2,77"
18-10-2011;10.08;7.34;"2,74"
19-10-2011;9.80;7.02;"2,78"
20-10-2011;10.00;6.94;"3,06"
21-10-2011;10.20;7.07;"3,13"
24-10-2011;10.26;7.10;"3,16"
25-10-2011;10.23;7.11;"3,12"
26-10-2011;10.09;7.11;"2,98"
27-10-2011;10.14;7.22;"2,92"
28-10-2011;10.24;7.07;"3,17"
31-10-2011;10.10;7.00;"3,1"
02-11-2011;9.45;6.53;"2,92"
03-11-2011;9.52;6.62;"2,9"
04-11-2011;9.30;6.59;"2,71"
07-11-2011;9.67;6.80;"2,87"
08-11-2011;10.08;7.05;"3,03"
09-11-2011;9.85;6.83;"3,02"
10-11-2011;9.80;6.85;"2,95"
11-11-2011;10.07;7.11;"2,96"
14-11-2011;10.05;7.01;"3,04"
15-11-2011;10.01;7.06;"2,95"
16-11-2011;9.85;6.97;"2,88"
17-11-2011;9.63;6.84;"2,79"
18-11-2011;9.31;6.70;"2,61"
21-11-2011;8.90;6.35;"2,55"
22-11-2011;9.05;6.50;"2,55"
23-11-2011;8.46;6.05;"2,41"
24-11-2011;7.80;5.92;"1,88"
25-11-2011;7.60;5.09;"2,51"
28-11-2011;7.95;5.64;"2,31"
29-11-2011;7.92;5.46;"2,46"
30-11-2011;7.80;5.73;"2,07"
01-12-2011;7.92;5.51;"2,41"
02-12-2011;7.81;5.47;"2,34"
05-12-2011;7.30;5.15;"2,15"
06-12-2011;7.27;5.15;"2,12"
07-12-2011;7.02;4.93;"2,09"
12-12-2011;7.39;5.15;"2,24"
13-12-2011;7.05;4.47;"2,58"
14-12-2011;6.50;3.97;"2,53"
15-12-2011;6.75;4.28;"2,47"
16-12-2011;6.75;4.49;"2,26"
19-12-2011;6.98;4.55;"2,43"
20-12-2011;8.40;5.55;"2,85"
21-12-2011;7.94;5.30;"2,64"
22-12-2011;7.71;4.78;"2,93"
23-12-2011;7.85;4.75;"3,1"
27-12-2011;7.82;5.05;"2,77"
28-12-2011;7.38;4.52;"2,86"
29-12-2011;6.88;4.39;"2,49"
30-12-2011;6.65;4.21;"2,44"
